Sie sind vermutlich noch nicht im Forum angemeldet - Klicken Sie hier um sich kostenlos anzumelden  

Synchrondatenbank (von Arne Kaul) | Deutsche Synchronkartei | Seriensynchron - SeSyDaB | dubDB | Die vergessenen Filme || Datenschutz
Sie können sich hier anmelden
Dieses Forum hat 3.642 Themen
und zur Zeit 42.228 Beiträge
Sie haben keine Schreibrechte
 Filme: 1990 bis 2009  »Neues Thema erstellen«
Forum Information
   Betreff Absender Antworten Zugriffe Letzter Beitrag
Der Gigant aus dem All Schlitzi 12 901 06.07.2018 23:17
Blind Side - Straße in den Tod (1993) Wilkins 1 265 03.07.2018 23:06
Arthur und die Minimoys Donnie Darko 9 1.061 01.07.2018 07:58
Ratatouille (1, 2, 3, 4) schokohäubchen 58 6.215 20.06.2018 00:06
Hamlet - The Denmark Corporation (2000) Frank Brenner 6 357 19.06.2018 18:19
Jack und Sarah - Daddy im Alleingang (GB 1995) Silenzio 1 216 19.06.2018 06:45
Die Rotkäppchen-Verschwörung (1, 2) Mew Mew 18 3.401 12.06.2018 19:03
Die verlorene Welt (CDN 1992) Silenzio 3 325 06.06.2018 23:49
Tremors - Im Land der Raketenwürmer (1990) Ohne Wiederkehr 11 1.428 04.06.2018 18:30
Schrei in der Stille (USA 1990) Silenzio 8 495 04.06.2018 16:26
Buried Alive - Lebendig begraben (1990) Wilkins 10 488 01.06.2018 22:51
Perdita Durango (1997) Wilkins 5 274 28.05.2018 01:20
Die schrillen Vier auf Achse (1, 2) VanToby 16 2.041 27.05.2018 22:59
Aktion Mutante (ES 1993) Wilkins 7 434 27.05.2018 03:04
"In the Cut" [SPEKULATION] (1, 2) Hendrik Meyerhof 23 1.436 25.05.2018 02:41
Mars Attacks! (USA 1996) VanToby 4 351 22.05.2018 16:58
Code Condor (I 1990) Silenzio 0 167 18.05.2018 23:45
Der Dummschwätzer (USA 1997) VanToby 4 368 13.05.2018 23:04
Love & a .45 (1994) dlh 3 420 01.05.2018 10:26
Küss den Frosch (The Princess And The Frog; USA, 2009) (1, 2, 3, 4, 5, 6, Letzte Seite) Isch 137 11.950 29.04.2018 15:57
Direct Hit - Im Todeskreis der Angst (USA 1994) Silenzio 0 163 26.04.2018 23:26
Bill & Teds verrückte Reise in die Zukunft (1991) dlh 12 752 25.04.2018 17:03
The Last Match - Der letzte Fight (I/USA 1991) Silenzio 0 201 22.04.2018 22:40
Serial Mom - Warum lässt Mama das Morden nicht? (1993) dlh 6 846 19.04.2018 18:45
Prayers for Bobby (2008; DF: 2009) Frank Brenner 2 306 17.04.2018 15:24
Bolt - Ein Hund für alle Fälle (2008) Frank Brenner 11 1.581 15.04.2018 13:09
LOONEY TUNES Back In Action neusynchrosmachenalleskaputt 14 1.463 10.04.2018 15:47
Breaking the Waves (DK/NO/SE/FR/NL 1996) Silenzio 3 226 10.04.2018 01:22
Freundschaft, Liebe, Rache (Vento di mare) Gianfranco Mingozzi 1991 kogenta 0 179 10.04.2018 01:13
Lapitch, der kleine Schuhmacher (D/HR 1997) Edigrieg 5 360 08.04.2018 19:41
Power Rangers - Der Film (USA, 1995) hudemx 12 581 04.04.2018 17:46
Hellraiser III: Hell on Earth (1992) WasGehtSieDasAn 11 990 30.03.2018 19:30
Mr. Jones (USA 1993) Silenzio 0 212 26.03.2018 22:24
Teuflisch (USA 2000) VanToby 3 252 26.03.2018 01:37
Barbie als Prinzessin und das Dorfmädchen Besetzungsliste Mew Mew 1 1.410 21.03.2018 21:41
Die Asche meiner Mutter (1999; DF: 2000) Frank Brenner 3 426 20.03.2018 20:14
Nightmare Lover (USA 1993) Silenzio 5 287 19.03.2018 02:09
Bernard & Bianca im Känguruland (1990) Edigrieg 3 465 17.03.2018 12:49
The Invincible Iron Man (2007) hudemx 1 394 16.03.2018 12:24
August (1995; DF: 1996) Frank Brenner 6 431 14.03.2018 16:30
 Sprung Seite « zurück  1 - 16  17  18  19  20  21  22  23 - 92  weiter »

Farb-Legende: blau = Spekulation, orange = Trailer-Besetzung, grün = endgültige Besetzung, rot = Korrektur/Ergänzung zur endgültigen Besetzung


Wir lieben Synchron.
Erreichbar unter
215072.homepagemodules.de -- forum.serien-synchron.de -- forum.seriensynchron.de

Weitere Smileys auf www.smilie-harvester.de


Xobor Forum Software von Xobor | Forum, Fotos, Chat und mehr mit Xobor
Datenschutz